Tracking 26321 objects as of 27-Nov-2022
HD Live streaming from Space Station
objects crossing your sky now

COSMOS 1408 DEB

Track COSMOS 1408 DEB now!
10-day predictions


NORAD ID: 52236
Int'l Code: 1982-092BWU
Perigee: 371.0 km
Apogee: 489.0 km
Inclination: 82.5 °
Period: 93.0 minutes
Semi major axis: 6801 km
RCS: Unknown
Launch date: September 16, 1982
Source: Commonwealth of Independent States (former USSR) (CIS)
Launch site: PLESETSK MISSILE AND SPACE COMPLEX (PKMTR)

Note: This is SATELLITE DEBRIS
aabbcc
Your satellite tracking list
Your tracking list is empty




NASA's NSSDC Master Catalog

Two Line Element Set (TLE):
1 52236U 82092BWU 22330.83337328  .00247542  00000-0  39899-2 0  9990
2 52236  82.5232 115.8129 0086808 261.6652  97.4749 15.47901280 40738
Source of the keplerian elements: AFSPC